Regional Weather Roundup
Issued by NWS Burlington, VT

Home | Current Version | Previous Version | Text Only | Print | Product List | Glossary On
Versions: 1 2 3 4 5 6 7 8 9 10 11 12 13 14 15 16 17 18 19 20 21 22 23 24 25 26 27 28 29 30 31 32 33 34 35 36 37 38 39 40 41 42 43 44 45 46 47 48 49 50
000
ASUS41 KBTV 240630
RWRBTV
VERMONT REGIONAL WEATHER ROUNDUP
NATIONAL WEATHER SERVICE BURLINGTON VT
200 AM EDT FRI MAR 24 2017

NOTE: "FAIR" INDICATES FEW OR NO CLOUDS BELOW 12,000 FEET WITH NO
SIGNIFICANT WEATHER AND/OR OBSTRUCTIONS TO VISIBILITY.

* THESE REPORTS ARE NOT UNDER NWS QUALITY CONTROL AND/OR DO NOT
  REPORT WEATHER SUCH AS PRECIPITATION AND FOG.

VTZ001>019-240700-
_____VERMONT_____


CITY           SKY/WX    TMP DP  RH WIND       PRES   REMARKS
BURLINGTON     PTCLDY    28   5  37 S7        30.40F WCI  21
6HR MIN TEMP:  25; 6HR MAX TEMP:  29;

MONTPELIER     CLOUDY    23   3  42 S7        30.43F WCI  15
6HR MIN TEMP:  16; 6HR MAX TEMP:  23;

MORRISVILLE    CLOUDY    16   8  71 CALM      30.42F
6HR MIN TEMP:  14; 6HR MAX TEMP:  22;

ST. JOHNSBURY*   N/A     19   6  57 MISG      30.42F
6HR MIN TEMP:  18; 6HR MAX TEMP:  25;

LYNDONVILLE*   FAIR      17   6  62 S3        30.41S
6HR MIN TEMP:  15; 6HR MAX TEMP:  23;

MIDDLEBURY*    FAIR      29   7  40 SE3       30.42F
6HR MIN TEMP:  23; 6HR MAX TEMP:  29;

RUTLAND*       CLOUDY    22   7  52 SE12      30.43F WCI  10
6HR MIN TEMP:  21; 6HR MAX TEMP:  28;

SPRINGFIELD    CLOUDY    20  10  65 CALM      30.47F
6HR MIN TEMP:  19; 6HR MAX TEMP:  31;

HIGHGATE*      FAIR      21   8  57 SE3       30.40F
6HR MIN TEMP:  22; 6HR MAX TEMP:  28;

NEWPORT*       MOCLDY    20   4  50 S8        30.39S WCI  11
6HR MIN TEMP:  15; 6HR MAX TEMP:  22;

BENNINGTON     CLOUDY    27   8  44 SE3       30.45F
6HR MIN TEMP:  20; 6HR MAX TEMP:  31;

SUTTON*          N/A     18 N/A N/A MISG        N/A
ISLAND POND*     N/A      9 N/A N/A CALM        N/A
GALLUP MILLS*    N/A     10 N/A N/A MISG        N/A
UNION VILLAGE*   N/A     19 N/A N/A MISG        N/A
MT. MANSFIELD*   N/A     14 N/A N/A S17         N/A  WCI  -3

_____LAKE CHAMPLAIN_____


CITY           SKY/WX    TMP DP  RH WIND       PRES   REMARKS
BURTON ISLAND*   N/A     28  14  54 S10         N/A  WCI  19
COLCHESTER RF*   N/A     32  18  55 S22         N/A  WCI  19

$$

NYZ007-026>031-035-052-083-087-240700-
_____NORTHERN NEW YORK_____


CITY           SKY/WX    TMP DP  RH WIND       PRES   REMARKS
PLATTSBURGH    CLOUDY    27   7  42 SW5       30.41F WCI  22
6HR MIN TEMP:  23; 6HR MAX TEMP:  29;

SARANAC LAKE   CLOUDY    22   8  55 S5        30.28F WCI  16
6HR MIN TEMP:  14; 6HR MAX TEMP:  26;

MASSENA        CLOUDY    28  15  58 S3        30.37F
6HR MIN TEMP:  27; 6HR MAX TEMP:  32;

POTSDAM*       CLOUDY    30  12  47 S5        30.34F WCI  25
STARK FALLS*     N/A     27 N/A N/A SE15        N/A  WCI  15
WATERTOWN      CLOUDY    33   9  36 SE6       30.32F WCI  28
6HR MIN TEMP:  24; 6HR MAX TEMP:  33;

FT DRUM        CLOUDY    29  11  48 SE14      30.30F WCI  18
6HR MIN TEMP:  26; 6HR MAX TEMP:  29;

ALBANY         CLOUDY    28  11  48 S5        30.47F WCI  23
6HR MIN TEMP:  24; 6HR MAX TEMP:  32;

GLENS FALLS    CLOUDY    26  16  65 S3        30.46F
6HR MIN TEMP:  19; 6HR MAX TEMP:  33;


$$
NHZ002-005-011-240700-
_____NEW HAMPSHIRE_____


CITY           SKY/WX    TMP DP  RH WIND       PRES   REMARKS
LEBANON        MOCLDY    21  11  65 NE5       30.45F WCI  15
6HR MIN TEMP:  18; 6HR MAX TEMP:  28;

KEENE          CLOUDY    24  13  62 CALM      30.48F
6HR MIN TEMP:  21; 6HR MAX TEMP:  28;

MT WASHINGTON  PTCLDY    14 -24  17 W16         N/A  WCI  -2
6HR MIN TEMP:  -2; 6HR MAX TEMP:  13;

PLYMOUTH       MOCLDY    22  11  62 CALM      30.46F
6HR MIN TEMP:  21; 6HR MAX TEMP:  28;

WHITEFIELD     CLOUDY    10   2  69 CALM      30.41F
6HR MIN TEMP:   9; 6HR MAX TEMP:  21;


$$

_____REGIONAL QUEBEC LOCATIONS_____


CITY           SKY/WX    TMP DP  RH WIND       PRES   REMARKS
MONTREAL       CLOUDY    28  14  54 SE7       30.38F WCI  21
QUEBEC CITY    MOCLDY    19   9  63 CALM      30.33F
SHERBROOKE     CLEAR     14   5  67 E2        30.36F

_____REGIONAL ONTARIO LOCATIONS_____


CITY           SKY/WX    TMP DP  RH WIND       PRES   REMARKS
OTTAWA         CLOUDY    28  10  47 S7        30.32S WCI  21

______KEY______
VSB  - VISIBILITY IN MILES
WCI  - WIND CHILL INDEX
HX   - HEAT INDEX
$$
NNNN



USA.gov is the U.S. government's official web portal to all federal, state and local government web resources and services.